Find Starlink 31818

NORAD ID: 59741 Int'l Des: 2024-090 Owner: SPXS Country: US Constellation: starlink operational
LEOCIRCULAR

Current View

Loading 3D Globe...

About Starlink 31818

Starlink 31818 (NORAD 59741) is a starlink constellation satellite (v2 mini) launched May 13, 2024 by SPXS of US. It operates in LEO, CIRCULAR orbit with a mass of 730.00 kg.

About Starlink 31818

Description loading...

Upcoming Passes

Passes for default location (London). Set your location on the main map for personalized predictions.

Altitude History

Loading altitude history...

Two-Line Element Set

1 59741U 24090M 26167.20106927 .00000065 00000-0 11898-4 0 9992
2 59741 43.0089 347.3700 0001936 277.1750 82.8881 15.27578991118508
Epoch: Jun 16, 2026 • Age: 19 hours

Current Status

Altitude 483.0 km
Velocity 7.63 km/s
Sub-Earth Point 21.68°N, 105.73°E
Launch Date May 13, 2024
Age 2 years
Type internet

Technical Details

Classification Payload
Mass 730.00 kg
Dry Mass 700.00 kg
Total Mass 730.00 kg
Length 0.30 m
Diameter 4.10 m
Span 29.00 m
Shape Box + pan
Manufacturer SPXS
Bus Type Starlink V2M
Phase Status In Orbit
Owner/State SPXS/US

Most Searched